ORBCOMM FM32

Last updated on Tue Sep 22 2026 00:03:23 GMT+0000 (Coordinated Universal Time)

1 25982U 99065C 26264.07915190 .00000363 00000+0 16805-3 0 9991 2 25982 45.0146 79.3012 0006634 171.9489 188.1466 14.37245019400888
UTC large
Height (km)
Speed (km/s)
/
Latitude / Longitude
Inclination (degrees)
Orbital Period (minutes)
Azimuth
Elevation
Range (km)
Doppler Factor

Next 0 passes for location: London (51.5072 / 0.1276)

No passes found over London.
ORBCOMM FM32